ROMMA est une association bénévole à but non lucratif. Votre soutien est indispensable : ADHERER à ROMMA ou FAIRE un DON

Die - (26, Drôme)

Diois (400 m)   Longitude: 5° 21' 55"E   Latitude: 44° 45' 16"N Station partenaire n°159
 

Détail journalier du     <<     >>

Température Precipitation Humidité Pression Vent Dir Rafale Dir. rafale Ensol.
Heure (°C) (mm) (%) (hPa) (km/h) (km/h) (min)
01:00 -2.4093103302SO0
02:00 -2.6093103303SO0
03:00 -3.2093103202SO0
04:00 -3.3093103202SO0
05:00 -3.7093103103SO0
06:00 -4.0094103103SO0
07:00 -4.309310311SO3SO0
08:00 -4.209310311ESE3SO0
09:00 -4.1094103103ESE0
10:00 -1.7092103102ESE30
11:00 2.208210311SE3SE60
12:00 4.907010301SE5SE60
13:00 7.805810282SSO6SSO60
14:00 10.605410272SSO6OSO60
15:00 10.605510263SO8SO60
16:00 5.707010252S8SO0
17:00 5.307110252S6OSO0
18:00 2.608010261SSO6SSO0
19:00 1.008510261SSE3SSE0
20:00 -0.308710261SSO6SO0
21:00 -0.708710262ESE6ESE0
22:00 -1.208910262SSO6S0
23:00 -0.908810261SSO8SSO0
minuit -1.409010261SSO5SO0

Graphique du 09-01-2020

 

Serveur OMMA